Find Starlink 3297

NORAD ID: 50159 Int'l Des: 2021-125 Owner: SPXS Country: US Constellation: starlink operational
LEOCIRCULAR

リアルタイム位置

3D地球を読み込み中...

Starlink 3297について

説明を読み込み中...

次回通過

Passes for default location (London). Set your location on the main map for personalized predictions.

高度履歴

Loading altitude history...

軌道要素

1 50159U 21125D 26123.07850828 -.00000514 00000-0 -14175-4 0 9997
2 50159 53.2194 14.9718 0001508 92.2477 267.8687 15.08837463244662
Epoch: May 3, 2026 • Age: 13 hours

現在のステータス

高度 544.6 km
速度 7.59 km/s
衛星直下点 -16.45°S, 79.25°W
打ち上げ日 Dec 18, 2021
運用期間 4.3 years
タイプ internet

技術仕様

分類 Payload
質量 290.00 kg
乾燥質量 270.00 kg
総質量 290.00 kg
長さ 0.20 m
直径 2.80 m
スパン 9.00 m
形状 Box + pan
製造者 SPXS
バスタイプ Starlink
フェーズステータス In Orbit
所有者/国 SPXS/US

Most Searched